GFSFLT1_700_rhum_159.txt.gz
RH
23 26 27 26 27 27 25 19 18 18 17 16 14 12 10 6 5 6 17 33 35 39 50 74 97 71 67 46 52 50 44 42
24 26 27 30 32 31 30 25 21 19 19 17 16 13 11 9 6 5 6 6 14 26 35 50 70 93 97 74 61 55 52 51
37 39 35 30 29 30 29 27 24 23 23 20 18 14 13 11 5 4 4 5 7 10 20 27 68 82 96 84 83 87 74 71
44 44 43 38 36 34 31 27 27 27 22 18 16 14 12 7 2 2 3 3 5 7 10 14 24 36 88 93 84 73 92 75
52 52 47 43 38 35 34 34 25 20 16 11 7 8 8 4 2 2 3 4 3 4 6 11 10 22 33 67 91 72 77 78
55 51 49 46 39 32 28 22 16 12 7 5 4 5 6 6 6 6 5 5 7 7 8 8 10 12 15 32 38 39 78 91
57 51 42 33 28 25 22 16 7 5 5 8 7 6 6 7 7 8 8 8 10 12 13 14 11 13 14 16 39 53 80 96
51 43 34 30 27 21 12 6 7 9 10 13 14 12 12 14 14 15 16 16 18 23 24 26 23 15 15 17 13 31 71 92
47 37 32 30 25 14 10 11 14 16 16 18 22 23 21 23 26 30 36 39 39 37 40 46 46 36 22 20 20 13 27 62
43 36 34 30 18 13 17 20 22 25 28 33 33 32 33 34 35 39 38 43 50 57 57 51 56 50 42 32 23 25 18 19
42 41 39 25 13 19 24 26 30 36 36 33 32 33 30 32 30 37 60 64 67 64 69 75 82 78 59 50 30 33 32 22
48 44 38 26 17 23 28 31 34 30 28 26 24 25 22 22 24 39 68 77 77 80 84 89 91 87 92 78 70 74 99 93
49 44 37 23 24 31 30 29 30 27 23 23 24 23 23 24 23 30 47 83 92 93 91 93 89 92 92 96 100 89 67 78
51 43 32 28 34 35 30 27 25 21 21 21 22 22 23 25 25 25 34 71 97 96 94 93 92 96 98 96 100 96 97 97
46 31 30 35 40 39 31 30 24 21 21 21 20 20 21 21 22 25 29 45 87 96 96 95 95 96 97 96 97 98 98 98
38 36 39 44 43 39 33 32 23 21 20 20 22 22 24 24 24 26 26 33 48 86 94 96 96 96 97 97 97 97 98 98
47 41 50 46 43 39 37 31 24 21 21 22 23 21 18 21 28 30 28 30 37 49 76 86 97 96 96 97 93 97 96 97
50 50 54 49 49 45 39 28 24 24 24 24 24 20 13 15 25 32 33 30 32 37 45 50 66 92 97 97 97 97 96 98
56 59 59 56 51 45 32 27 28 28 27 26 26 21 12 12 21 34 35 34 30 29 34 42 47 67 74 96 96 97 95 96

GFSFLT1_700_rhum_162.txt.gz
RH
17 20 22 25 27 28 29 31 29 27 27 26 24 23 23 21 20 18 14 13 10 6 5 4 5 14 37 62 88 98 79 58
22 26 31 32 31 31 34 35 34 30 29 27 26 26 25 22 20 16 14 12 10 4 3 4 4 5 7 27 61 92 99 88
31 35 38 42 40 38 38 35 33 32 31 30 29 28 25 22 19 14 11 7 4 2 2 2 3 5 6 6 23 45 72 93
41 47 49 50 48 44 40 39 38 37 34 30 25 20 16 13 10 8 5 4 3 4 3 3 2 2 4 6 6 19 42 82
44 50 53 53 50 47 42 37 32 28 24 21 16 12 8 7 6 7 7 7 7 8 7 6 4 3 3 4 6 8 10 34
55 58 54 51 46 36 30 25 21 17 15 11 6 5 6 7 8 9 10 10 11 10 9 9 10 7 6 5 5 6 10 9
58 60 59 52 38 30 24 18 12 9 7 6 6 7 9 9 11 14 15 16 16 24 28 25 20 19 21 18 14 7 8 10
64 62 49 38 34 28 20 9 8 11 12 13 13 14 17 19 20 21 22 26 31 32 36 37 35 34 32 31 29 22 14 14
67 55 42 38 35 33 24 11 12 16 18 19 22 26 27 27 28 29 28 26 24 26 42 47 50 51 49 45 40 40 36 26
64 48 41 39 36 33 21 12 15 22 20 14 20 24 23 23 20 21 20 17 17 30 59 61 64 63 66 66 61 55 51 45
56 44 43 39 34 27 18 17 23 25 20 16 14 12 14 14 15 17 18 17 18 24 64 72 69 70 72 81 85 81 72 65
51 44 45 40 34 24 22 26 31 28 21 20 14 13 14 14 14 14 14 16 17 22 50 81 77 77 83 83 87 88 90 90
47 48 49 40 33 25 27 35 33 28 25 23 14 14 14 13 13 13 16 17 17 20 39 72 87 88 90 91 91 95 95 91
51 53 50 40 33 33 36 37 36 31 27 22 15 13 14 14 15 15 16 21 20 20 26 36 80 91 96 98 94 93 96 96
60 63 48 41 37 42 41 40 39 36 29 19 16 14 16 17 15 11 10 17 26 23 24 29 53 88 93 96 93 92 98 97
69 58 51 46 48 47 45 44 43 38 25 19 18 20 20 19 15 10 9 18 30 29 26 31 40 60 68 93 96 93 96 96
67 59 57 52 50 50 52 47 42 31 25 23 23 23 22 21 16 10 10 17 32 35 31 29 32 39 52 82 94 94 96 96
65 63 59 54 55 57 52 47 35 29 30 28 26 24 23 24 18 11 11 13 26 36 36 32 32 33 43 46 87 84 96 96
68 65 55 58 60 57 52 39 33 33 33 32 31 29 28 27 24 15 11 12 16 27 37 37 36 36 39 40 50 72 74 95

GFSFLT1_700_rhum_165.txt.gz
RH
18 19 19 21 25 28 31 33 34 35 39 38 37 35 34 31 29 26 25 22 20 17 16 13 11 7 5 4 5 5 21 44
19 21 24 29 35 39 40 42 43 43 41 39 38 36 34 31 24 19 16 14 12 9 7 6 5 4 2 2 2 4 5 15
25 28 36 42 45 44 44 44 43 41 40 39 37 34 27 18 13 10 8 6 6 6 6 6 6 5 4 2 2 2 2 5
31 37 41 45 46 49 51 49 47 42 34 32 26 19 12 9 6 5 5 5 6 6 8 10 10 10 8 6 4 2 2 2
36 42 45 49 50 51 52 46 35 29 24 18 12 8 6 6 7 8 10 11 11 12 13 15 14 13 14 11 7 4 3 3
38 46 52 55 55 54 40 32 27 21 12 8 7 8 10 10 11 12 14 15 17 20 22 24 27 30 28 28 26 20 17 7
42 52 57 60 59 46 35 31 28 22 13 9 10 10 12 9 10 15 18 18 21 25 25 18 14 15 25 35 33 32 30 27
50 55 61 63 50 38 34 31 26 18 11 12 15 17 13 9 8 17 18 17 15 16 17 14 13 13 34 48 49 45 41 40
55 64 67 55 42 38 34 29 16 14 14 17 21 18 16 10 8 8 10 9 9 9 10 11 13 16 48 59 58 56 52 49
62 71 65 46 43 39 35 31 16 15 19 24 24 21 19 11 9 9 9 9 9 10 11 11 14 25 63 69 70 63 63 70
66 70 58 46 45 39 36 32 18 19 25 28 28 24 20 13 10 10 10 10 10 13 15 17 15 22 32 72 76 74 77 77
60 66 58 46 43 42 38 33 22 28 30 32 32 27 18 14 12 12 12 12 12 10 12 20 17 18 26 63 82 86 86 78
58 64 54 48 50 46 39 31 33 34 34 36 36 27 18 15 16 16 14 13 11 9 12 22 20 18 24 33 69 78 81 79
58 56 51 56 54 47 39 40 39 38 38 38 33 23 20 19 19 18 16 14 11 10 13 24 26 20 21 29 44 77 93 85
60 60 60 65 56 46 44 44 41 43 42 38 28 24 23 23 22 20 18 16 12 11 12 21 30 24 25 28 36 52 90 96
68 70 74 66 56 48 47 43 47 46 44 32 28 28 27 26 24 23 22 19 13 11 12 17 30 31 28 28 31 40 50 86
74 81 78 64 53 53 44 50 49 48 36 32 33 32 31 30 28 28 26 24 20 12 12 13 18 30 34 35 35 34 41 48
88 84 70 58 56 47 51 53 51 40 36 37 36 34 30 27 26 26 28 28 26 23 14 12 13 17 27 35 40 40 40 40
89 74 64 57 48 53 55 55 42 40 39 37 33 29 27 26 24 22 20 19 20 22 22 19 13 13 17 23 35 43 46 48

GFSFLT1_700_rhum_168.txt.gz
RH
26 21 20 21 22 23 27 32 36 38 42 43 41 39 37 35 30 24 20 16 14 12 10 8 8 7 6 6 6 5 4 4
21 19 20 22 25 30 36 38 41 46 46 44 41 38 33 25 18 14 10 8 6 5 5 4 4 5 5 5 4 3 4 4
21 21 23 28 34 38 42 45 47 46 44 42 39 32 24 20 14 10 7 5 5 5 5 6 6 7 8 8 7 6 5 4
24 27 32 39 43 45 49 50 51 49 42 40 30 26 20 12 8 6 7 7 7 7 8 10 9 8 9 10 12 12 10 9
28 36 42 46 46 49 50 53 51 43 38 31 27 18 10 10 11 11 8 9 14 16 16 15 15 17 21 23 18 17 21 22
31 40 45 46 48 51 55 54 43 38 32 24 16 11 11 12 13 11 8 6 12 16 16 16 16 17 19 16 11 11 12 29
31 39 44 47 52 58 57 45 38 33 24 14 10 9 9 12 15 14 10 5 5 7 8 7 7 7 7 7 7 8 22 43
27 37 44 51 58 62 53 41 36 31 24 12 11 11 13 18 19 16 10 6 6 6 6 6 7 8 9 9 11 18 34 51
25 36 47 54 64 61 44 39 34 33 25 14 14 17 21 24 23 17 12 7 6 6 6 8 9 10 13 14 13 26 35 57
32 43 53 63 68 52 44 40 37 36 28 20 23 24 25 27 25 19 12 9 8 9 8 9 10 10 15 18 14 25 32 63
35 42 57 65 62 54 45 44 40 37 29 26 26 27 28 28 25 19 14 12 12 13 11 10 11 11 20 22 16 21 23 42
29 44 53 64 65 55 49 49 43 39 30 30 31 32 32 30 24 19 18 17 16 15 13 11 12 12 21 26 19 17 16 24
33 37 52 67 67 57 57 53 45 38 32 33 36 36 34 28 23 21 21 21 20 18 16 12 12 12 16 26 22 19 17 21
33 38 54 70 71 68 63 54 46 36 34 39 40 39 32 27 27 26 25 24 23 22 20 15 12 12 13 20 27 25 23 24
35 49 62 77 78 73 65 55 45 36 41 45 43 36 30 30 29 27 26 25 25 25 25 23 18 12 12 15 22 30 31 28
37 50 66 85 82 76 64 53 37 43 48 48 38 32 31 30 26 23 22 21 21 20 22 24 23 21 14 12 16 22 32 35
42 56 76 90 85 73 60 43 42 52 51 40 35 34 30 26 24 22 19 17 14 12 11 11 12 16 19 18 14 15 21 34
48 68 90 92 82 66 51 43 52 53 42 37 36 31 28 25 20 14 9 6 5 5 4 5 5 6 7 8 15 16 15 21
64 87 95 91 71 57 42 53 54 43 40 38 32 30 26 18 9 6 4 3 3 3 3 3 3 3 4 4 5 7 15 20